Weather in Korsor

Denmark     55°19′36″N   11°08′42″E
temp.,
°C
wind,
m/s
gust,
m/s
humid.,
%
clouds,
%
prec.,
mm/h
press.,
hPa
HPBL,
m
29 july, thu
thu2923:00+19sw69835 0.9 1006588
02:00+18sw710815 2.0 1006568
05:00+17sw1012780 0.1 1005890
08:00+17sw1315782 0.6 10041167
11:00+17sw1315732 1.8 10041419
14:00+17sw13177141 2.9 10051641
17:00+17wsw13177497 1.7 10051587
20:00+17wsw14177527 2.9 10041357
30 july, fri
fri3023:00+17wsw13167798 0.1 10051244
02:00+17wsw131674100 0.3 10041403
05:00+17wsw14178045 0.4 10021138
08:00+17wsw13168072 0.9 10031209
11:00+19wsw13167746 0.5 10031307
14:00+21wsw12146963 0.9 10031436
17:00+20wsw10127069 0.2 10041272
20:00+19wsw811706 0.2 1004963
31 july, sat
sat3123:00+18wsw58765 0.0 1004449
02:00+18ssw488163 0.7 1003555
05:00+18sw911813 1.1 1001675
08:00+17sw10118016 1.7 1000952
11:00+17sw101178100 0.5 10001135
14:00+17ssw101181100 2.1 9991019
17:00+18wnw797660 2.1 999941
20:00+17wnw11127324 2.7 10011039
1 august, sun
sun123:00+16w912755 0.0 1003975
02:00+16w91265100 0.1 10041430
05:00+16w91170100 0.1 10041126
08:00+16w8116989 0.3 1005998
11:00+17w7105811 0.0 10061617
14:00+19w8105693 0.3 10061900
17:00+19wnw795391 0.0 10072060
20:00+18w885829 0.1 10071163
2 august, mon
mon223:00+16w78690 0.0 1008714
02:00+15w68720 0.0 1009652
05:00+15w68769 0.0 1009599
08:00+16wsw78727 0.0 1009753
11:00+17wsw776698 0.4 1009983
14:00+18wsw786799 1.3 1009972
17:00+19w786397 1.1 10091310
20:00+18wnw896511 1.5 1009994